Station KGRY - Green Canyon 338 / Front Runner (Murphy E&P) Image indicating link to RSS feed of recent meteorological observations for station KGRY


Conditions at KGRY as of
(10:10 am CDT)
1510 GMT on 07/15/2024:
     

Click on the graph icon in the table below to see a time series plot of the last five days of that observation.

5-day plot - Wind Speed Wind Speed (WSPD): 2.9 kts
5-day plot - Air Temperature Air Temperature (ATMP): 87.8 °F
5-day plot - Dew Point Dew Point (DEWP): 75.2 °F
5-day plot - Visibility Visibility (VIS): 8.7 nmi
Previous observations
TIME
(CDT)
5-day plot - Wind Direction
WDIR
 
5-day plot - Wind Speed
WSPD
kts
5-day plot - Wind Gust
GST
kts
5-day plot - Wave Height
WVHT
ft
5-day plot - Dominant Wave Period
DPD
sec
5-day plot - Average Wave Period
APD
sec
5-day plot - Mean Wave Direction
MWD
 
5-day plot - Atmospheric Pressure
PRES
in
5-day plot - Pressure Tendency
PTDY
in
5-day plot - Air Temperature
ATMP
°F
5-day plot - Water Temperature
WTMP
°F
5-day plot - Dew Point
DEWP
°F
5-day plot - Salinity
SAL
psu
5-day plot - Visibility
VIS
nmi
5-day plot - Tide (above MLLW)
TIDE
ft
2024-07-15 09:50 am- 2.9------- 87.8- 73.4- 8.7-
2024-07-15 09:35 am- 2.9------- 89.6- 75.2- 8.7-
2024-07-15 09:15 am NW 5.1------- 91.4- 75.2- 8.7-
2024-07-15 08:50 am- 2.9------- 91.4- 75.2- 8.7-
2024-07-15 08:30 am- 0.0------- 89.6- 75.2- 8.7-
2024-07-15 08:10 am- 0.0------- 91.4- 75.2- 8.7-
2024-07-15 07:55 am- 0.0------- 91.4- 75.2- 8.7-
2024-07-15 07:30 am- 0.0------- 89.6- 75.2- 8.7-
2024-07-15 07:10 am- 0.0------- 87.8- 75.2- 8.7-
2024-07-15 06:55 am- 0.0------- 87.8- 75.2- 8.7-
2024-07-15 06:30 am- 2.9------- 86.0- 75.2- 8.7-
2024-07-15 06:10 am- 5.1------- 86.0- 75.2- 8.7-
2024-07-15 05:50 am- 2.9------- 87.8- 75.2- 8.7-
2024-07-15 05:30 am- 0.0------- 87.8- 75.2- 8.7-
2024-07-15 05:15 am- 2.9------- 84.2- 75.2- 8.7-
2024-07-15 04:55 amSSW 2.9------- 84.2- 73.4- 8.7-
2024-07-15 04:30 am- 0.0------- 87.8- 73.4- 8.7-
2024-07-15 04:10 am SW 2.9------- 86.0- 75.2- 8.7-
2024-07-15 03:50 am S 2.9------- 84.2- 75.2- 8.7-
2024-07-15 03:30 am- 0.0------- 84.2- 75.2- 8.7-
2024-07-15 03:15 am S 2.9------- 84.2- 75.2- 8.7-
2024-07-15 02:55 am S 4.1------- 84.2- 75.2- 8.7-
2024-07-15 02:35 am S 4.1------- 84.2- 75.2- 8.7-
2024-07-15 02:15 am SE 2.9------- 84.2- 75.2- 8.7-
2024-07-15 01:50 am- 0.0------- 84.2- 73.4- 8.7-
2024-07-15 01:30 am- 0.0------- 84.2- 73.4- 8.7-
2024-07-15 01:15 amSSW 4.1------- 84.2- 73.4- 8.7-
2024-07-15 12:50 am- 0.0------- 84.2- 73.4- 8.7-
2024-07-15 12:35 amSSE 5.1------- 84.2- 75.2- 8.7-
2024-07-15 12:15 am SE 4.1------- 84.2- 75.2- 8.7-
2024-07-14 11:55 pmSSE 2.9------- 84.2- 75.2- 8.7-
2024-07-14 11:35 pm- 0.0------- 84.2- 73.4- 8.7-
2024-07-14 11:10 pm- 0.0------- 84.2- 71.6- 8.7-
2024-07-14 10:55 pm- 0.0------- 84.2- 71.6- 8.7-
2024-07-14 10:35 pm SE 2.9------- 82.4- 69.8- 8.7-
2024-07-14 10:10 pmENE 6.0------- 84.2- 73.4- 8.7-
2024-07-14 09:55 pm NE 2.9------- 84.2- 73.4- 8.7-
2024-07-14 09:35 pm NE 2.9------- 84.2- 73.4- 8.7-
2024-07-14 09:15 pmENE 4.1------- 84.2- 73.4- 8.7-
2024-07-14 08:55 pm NE 5.1------- 84.2- 73.4- 8.7-
2024-07-14 08:35 pmENE 4.1------- 84.2- 73.4- 8.7-
2024-07-14 08:10 pm NE 4.1------- 84.2- 73.4---
2024-07-14 07:55 pm NE 5.1------- 84.2- 73.4- 8.7-
2024-07-14 07:35 pmENE 5.1------- 84.2- 75.2- 8.7-
2024-07-14 07:15 pm NE 6.0------- 86.0- 75.2- 8.7-
2024-07-14 06:55 pm NE 5.1------- 86.0- 75.2- 8.7-
2024-07-14 06:30 pm- 0.0------- 86.0- 75.2- 8.7-
2024-07-14 06:10 pmNNE 2.9------- 86.0- 75.2- 8.7-
2024-07-14 05:55 pm- 0.0------- 86.0- 73.4- 8.7-
2024-07-14 05:30 pm- 4.1------- 86.0- 73.4- 8.7-
2024-07-14 05:15 pm N 5.1 13.0------ 86.0- 73.4- 8.7-
2024-07-14 04:55 pm- 2.9 11.1------ 86.0- 75.2- 8.7-
2024-07-14 04:30 pm- 8.0 42.0------ 86.0- 73.4- 8.7-
2024-07-14 04:10 pm N 4.1 22.9------ 86.0- 73.4- 8.7-
2024-07-14 03:55 pm- 2.9------- 86.0- 73.4- 8.7-
2024-07-14 03:30 pm- 4.1------- 86.0- 73.4- 8.7-
2024-07-14 03:10 pmNNE 5.1------- 86.0- 73.4- 8.7-
2024-07-14 02:50 pm N 7.0------- 86.0- 73.4- 8.7-
2024-07-14 02:30 pmNNE 5.1------- 86.0- 73.4- 8.7-
2024-07-14 02:15 pm NE 7.0------- 86.0- 73.4- 8.7-
2024-07-14 01:55 pm NE 7.0------- 86.0- 73.4---
2024-07-14 01:30 pm NE 8.0------- 84.2- 75.2- 8.7-
2024-07-14 01:15 pm NE 5.1------- 84.2- 75.2- 8.7-
2024-07-14 12:55 pm NE 6.0------- 86.0- 75.2- 8.7-
2024-07-14 12:30 pm NE 7.0------- 84.2- 75.2- 8.7-
2024-07-14 12:10 pm NE 7.0------- 84.2- 75.2- 8.7-
2024-07-14 11:50 am NE 7.0------- 86.0- 75.2- 8.7-
2024-07-14 11:30 am NE 7.0------- 84.2- 75.2- 8.7-
2024-07-14 11:15 am NE 7.0------- 84.2- 75.2- 8.7-
2024-07-14 10:55 am NE 8.0------- 84.2- 75.2- 8.7-
2024-07-14 10:30 am N 5.1------- 86.0- 75.2- 8.7-
2024-07-14 10:15 am- 4.1------- 86.0- 75.2- 8.7-
2024-07-14 09:50 am N 4.1------- 87.8- 73.4- 8.7-